Tracking 21082 objects as of 6-Aug-2020
HD Live streaming from Space Station
objects crossing your sky now

COSMOS 2144

Track COSMOS 2144 now!
10-day predictions
COSMOS 2144 is classified as:


NORAD ID: 21300
Int'l Code: 1991-033B
Perigee: 1,417.9 km
Apogee: 1,423.1 km
Inclination: 82.6 °
Period: 114.1 minutes
Semi major axis: 7791 km
RCS: 1.1059 m2 (large)
Launch date: May 16, 1991
Source: Commonwealth of Independent States (former USSR) (CIS)
Launch site: PLESETSK MISSILE AND SPACE COMPLEX (PKMTR)
aabbcc
Your satellite tracking list
Your tracking list is empty




NASA's NSSDC Master Catalog

Two Line Element Set (TLE):
1 21300U 91033B   20218.56149047 +.00000008 +00000-0 -16437-4 0  9995
2 21300 082.5746 256.1541 0003312 286.2223 073.8504 12.62324455346350
Source of the keplerian elements: AFSPC